Location: Rock Island IL
(41.5000°N, 90.5500°W)
Time: 21:59:31
(UTC-05:00)

Daily predictions for brighter satellites

Satellite Brightness Start Highest point End
(mag) Time Altitude Azimuth Time Altitude Azimuth Time Altitude Azimuth
Meteor 2-10 Rocket 4.1 20:51:48 10° N 20:57:29 51° ENE 21:03:03 10° SSE
Cosmos 2181 Rocket 4.2 20:51:54 10° N 20:58:23 86° W 21:04:47 10° S
Cosmos 1892 3.2 20:55:41 10° SSE 20:59:16 39° E 21:02:52 10° NNE
H-2A R/B 3.4 20:55:52 10° S 20:59:30 54° W 21:03:10 10° NNW
Envisat 3.6 20:55:22 10° SE 21:00:06 41° ENE 21:04:51 10° N
USA 186 2.7 20:58:04 10° S 21:00:58 47° W 21:04:04 10° NNW
Cosmos 1733 Rocket 3.6 20:59:29 10° SSE 21:03:35 38° E 21:07:39 10° NNE
ERBS 3.2 21:10:08 10° NNW 21:13:28 41° NE 21:16:36 11° ESE
NOSS 2-2 (E) 3.7 21:12:26 10° SSW 21:16:27 53° ESE 21:21:06 10° NE
Cosmos 407 Rocket 4.4 21:12:39 10° N 21:17:26 34° ENE 21:21:52 12° SE
Cosmos 1238 Rocket 4.4 21:18:59 10° NE 21:20:38 13° ENE 21:21:59 11° ESE
Cosmos 2074 Rocket 4.0 21:16:11 10° S 21:22:27 77° E 21:28:44 10° N
SPOT 5 3.4 21:19:28 10° SE 21:24:29 51° ENE 21:29:40 10° N
COSMOS 2406 3.3 21:19:57 10° NNW 21:25:43 69° ENE 21:30:59 12° SSE
Cosmos 1190 Rocket 4.3 21:23:05 10° N 21:28:10 52° ENE 21:32:30 14° SE
Cosmos 909 Rocket 4.2 21:21:57 10° SSW 21:28:22 78° ESE 21:36:07 10° NNE
H-2A R/B 2.0 21:24:28 10° SSE 21:28:49 77° ENE 21:33:06 10° N
ERS-1 Rocket 3.2 21:23:53 10° S 21:28:54 71° WSW 21:33:57 10° NNW
Cosmos 1356 Rocket 3.5 21:25:44 10° S 21:29:56 85° WNW 21:34:14 10° N
Meteor 1-10 Rocket 4.3 21:25:19 10° N 21:31:12 74° E 21:36:56 10° SSE
PSLV R/B 3.9 21:29:27 17° SE 21:31:15 33° ENE 21:33:58 10° N
MetOp-B 4.5 21:28:34 12° SE 21:33:18 51° ENE 21:38:29 10° N
ALOS 4.5 21:31:14 10° SSW 21:34:58 24° W 21:38:45 10° NW
Cosmos 1862 4.3 21:33:23 15° SE 21:36:04 30° E 21:39:39 10° NNE
Nadezhda 3 Rocket 4.4 21:30:27 10° N 21:36:35 48° ENE 21:41:46 14° SSE
Terra 3.8 21:37:59 10° E 21:40:30 15° ENE 21:43:05 10° NNE
ATLAS 5 CENTAUR R/B 2.4 21:35:39 10° NW 21:41:42 89° NE 21:46:55 16° SE
ARGOS 3.9 21:38:33 16° SE 21:42:20 37° ENE 21:47:14 10° N
Okean 2 Rocket 4.3 21:42:45 18° ESE 21:44:34 23° E 21:48:04 10° NE
PSLV R/B 3.4 21:41:16 10° W 21:44:42 62° SSW 21:46:43 23° ESE
Cosmos 2278 Rocket 3.0 21:43:31 14° SSE 21:47:32 30° ESE 21:52:24 10° NE
OPS 6432 4.2 21:44:17 10° SSW 21:47:46 87° SE 21:50:53 10° NE
Sich 1 Rocket 3.6 21:43:18 10° S 21:47:51 69° E 21:52:25 10° NNE
Abrixas rocket 3.6 21:45:06 10° W 21:48:07 29° SW 21:49:51 18° S
Cosmos 1844 4.0 21:44:19 10° S 21:49:48 48° ESE 21:55:21 10° NE
USA 234 3.7 21:44:51 10° ENE 21:50:51 37° SE 21:56:46 10° SSW
CZ-4B R/B 3.8 21:46:46 10° NNE 21:51:30 42° E 21:54:54 17° SSE
Cosmos 2341 Rocket 4.3 21:46:29 12° SSE 21:52:11 50° E 21:58:13 10° NNE
Cosmos 1825 2.6 21:54:31 24° SSE 21:56:25 43° E 22:00:04 10° NNE
Cosmos 676 Rocket 4.2 21:52:46 10° NNW 21:57:54 57° ENE 22:01:01 23° SE
Cosmos 1674 Rocket 3.8 21:53:41 10° NNW 21:58:09 69° W 22:02:00 13° S
Cosmos 2056 Rocket 3.8 21:54:40 10° SSW 21:59:49 67° WNW 22:04:56 10° NNE
UNK 4.5 21:53:54 10° NNE 22:00:10 70° ESE 22:06:10 10° S
Cosmos 1844 Rocket 2.6 21:55:18 10° SSW 22:00:58 80° ESE 22:06:38 10° NNE
Cosmos 1939 Rocket 4.2 21:58:07 10° SSW 22:01:39 34° W 22:05:14 10° NNW
Meteor 1-27 Rocket 3.6 21:57:05 10° N 22:02:41 80° E 22:06:41 19° SSE
Cosmos 1184 Rocket 3.4 22:04:00 33° ESE 22:04:33 36° E 22:07:39 10° NNE
Cosmos 1782 3.5 22:01:22 10° NNW 22:05:18 54° W 22:08:36 14° S
Cosmos 1954 Rocket 4.3 22:00:32 10° N 22:05:37 51° ENE 22:08:21 26° SE
Cosmos 1174 3.9 22:02:47 10° NNW 22:05:58 40° NE 22:06:47 32° E
Cosmos 2082 Rocket 3.9 22:02:06 10° N 22:06:22 21° NE 22:09:37 14° E
Cosmos 1782 Rocket 3.7 22:07:23 25° SSE 22:09:43 53° E 22:14:05 10° NNE
COSMOS 2487 3.3 22:09:29 10° N 22:12:53 37° ENE 22:13:44 32° E
Atlas Centaur 2 3.2 22:10:53 10° SW 22:12:00 14° SSW 22:12:00 14° SSW
SL-27 R/B 3.3 22:10:55 10° NNW 22:14:27 46° WSW 22:16:20 23° SSW
NOSS 5 (C) 4.3 22:14:32 36° S 22:15:32 52° ESE 22:18:34 10° NE
YAOGAN 6 2.8 22:14:36 27° S 22:16:21 62° W 22:19:50 10° NNW
Cosmos 1408 2.4 22:15:27 29° S 22:17:12 81° E 22:20:53 10° N
CZ-4 R/B 3.8 22:14:40 10° NNE 22:19:19 57° E 22:21:33 29° SSE
Cosmos 962 Rocket 4.4 22:14:39 14° S 22:20:04 82° E 22:26:18 10° N
SL-8 Rocket 4.3 22:17:09 25° SSE 22:20:34 49° E 22:26:34 10° NNE
COS B Rocket 4.1 22:17:19 10° N 22:21:28 52° W 22:24:24 16° SSW
SL-8 R/B 4.0 22:17:11 10° WSW 22:21:59 69° NNW 22:26:48 10° ENE
Meteor 2-13 Rocket 4.5 22:19:37 22° S 22:23:41 65° E 22:29:47 10° NNE
CENTAUR R/B 3.9 22:16:58 10° NW 22:24:22 44° WSW 22:30:41 16° S
Cosmos 2154 Rocket 4.2 22:18:43 10° SSW 22:24:56 72° W 22:31:09 10° N
Cosmos 1975 Rocket 2.9 22:21:31 10° N 22:25:51 74° E 22:27:24 39° SSE
SL-08 RB Rocket 3.6 22:24:57 34° SSE 22:26:56 79° ENE 22:31:34 10° N
Cosmos 1606 3.5 22:23:32 10° NNW 22:27:21 49° W 22:29:28 23° SSW
CARTOSAT-1 4.2 22:27:44 33° ESE 22:28:48 39° ENE 22:32:50 10° N
NOAA 11 4.2 22:28:50 27° S 22:31:54 83° WSW 22:37:27 10° NNW
Okean 3 3.5 22:28:13 10° N 22:32:32 77° W 22:34:14 36° S
USA 245 3.6 22:35:53 36° SW 22:36:31 42° W 22:39:52 10° NNW
Cosmos 1242 Rocket 2.5 22:33:26 10° N 22:37:05 69° E 22:37:28 62° ESE
H-2A R/B 2.2 22:36:43 36° SE 22:38:49 63° ENE 22:44:07 10° N
Cosmos 1378 Rocket 4.4 22:38:57 10° NNW 22:43:03 43° W 22:45:10 24° SSW
Cosmos 1023 Rocket 4.4 22:38:58 10° NNW 22:44:05 76° ENE 22:45:41 44° SE
Cosmos 1295 Rocket 4.5 22:42:45 22° S 22:47:02 86° W 22:53:22 10° N
Cosmos 1420 Rocket 3.9 22:46:17 33° S 22:48:40 75° ESE 22:53:54 10° NNE
Cosmos 2151 Rocket 3.8 22:49:00 49° ESE 22:49:26 52° E 22:53:51 10° NNE
ERBS 4.4 22:47:34 10° WNW 22:50:03 19° SW 22:50:03 19° SW
SPOT 1/Viking Rocket 4.4 22:51:06 23° SSW 22:53:55 43° W 22:58:53 10° NNW
CZ-3C R/B 4.4 22:49:58 10° SW 22:54:59 13° SSW 22:55:54 12° SSW
Cosmos 489 Rocket 4.5 22:50:21 10° NNW 22:56:34 77° WSW 22:59:03 38° S
Cosmos 2366 rocket 3.9 22:56:09 38° SSE 22:58:38 71° E 23:04:56 10° NNE
Cosmos 1238 Rocket 4.3 22:57:57 10° NW 23:00:29 23° W 23:01:14 21° WSW
BREEZE-M DEB (TANK) 4.2 22:59:07 10° NW 23:00:56 20° N 23:03:51 10° ENE
Landsat 7 4.0 23:00:35 44° SSW 23:01:55 66° WSW 23:06:40 10° NNW
SAR-Lupe-2 4.1 23:02:28 50° NE 23:02:28 50° NE 23:05:34 10° N
Meteor 1-14 Rocket 4.1 23:00:06 37° S 23:02:30 89° E 23:08:09 10° N
Meteor 1-18 Rocket 4.4 22:56:43 10° N 23:02:33 61° ENE 23:04:09 45° SE
Cosmos 2084 3.7 23:08:44 34° WSW 23:10:09 56° NW 23:13:57 10° NNE
ASTEX 1 3.5 23:07:20 10° NNE 23:12:11 54° E 23:12:25 53° ESE
Spot 4 3.7 23:13:28 65° SSE 23:14:14 87° ENE 23:19:07 10° NNW
Cosmos 614 Rocket 3.8 23:10:30 10° NNW 23:15:37 86° WSW 23:16:24 64° S
Cosmos 1140 Rocket 3.9 23:11:28 10° NNW 23:16:29 54° WSW 23:17:37 45° SSW
Terra 2.0 23:16:52 54° SSW 23:17:41 65° WSW 23:22:26 10° NNW
Cosmos 2218 Rocket 4.2 23:17:24 31° SSW 23:20:37 69° W 23:27:02 10° N
DMSP B5D2-2 4.2 23:17:07 10° N 23:22:19 72° WNW 23:24:02 43° SW
Okean 1 Rocket 3.9 23:24:31 39° ENE 23:24:31 39° ENE 23:28:02 10° NNE
ATLAS 5 CENTAUR R/B 4.4 23:22:08 10° WNW 23:25:49 16° WSW 23:28:29 13° SW
BREEZE-M DEB (TANK) 3.3 23:19:05 10° WNW 23:26:27 44° SW 23:26:27 44° SW
Cosmos 1300 Rocket 4.0 23:29:21 51° ENE 23:29:21 51° ENE 23:33:06 10° NNE
Cosmos 2278 Rocket 3.4 23:26:08 10° SW 23:31:27 40° WNW 23:36:47 10° N
Meteor 1-11 Rocket 4.4 23:33:06 39° E 23:33:13 39° E 23:38:35 10° NNE
USA 234 3.6 23:27:36 10° NE 23:34:03 65° NW 23:40:29 10° WSW
Cosmos 1833 Rocket 2.5 23:32:40 10° NNW 23:38:19 81° ENE 23:39:00 69° SE
Cosmos 1727 Rocket 4.1 23:32:24 10° NNW 23:38:31 66° W 23:40:11 47° SSW
Cosmos 1812 3.4 23:36:59 10° N 23:40:03 54° NNW 23:40:03 54° NNW
Cosmos 2082 Rocket 2.2 23:45:19 10° NNW 23:50:58 64° WSW 23:51:28 61° SW
Cosmos 1400 Rocket 4.5 23:56:12 27° NE 23:56:12 27° NE 23:58:29 10° NNE
